Wetterdaten: Freitag, 25.01.2019
Datum Zeit Temp. A. Aussen2m Boden Feuchte A. Feuchte 2 Luftdruck Regen Wind Richtung Richtung Sonnenschein
25.01.2019 00:00 9,2 C 32,4 C 10,8 C 99 % 99 % 1011,8 hPa 0,0 l/m 0,0 km/h (0 Bft) S-SO 160 0 min
25.01.2019 00:05 9,2 C 32,4 C 10,8 C 99 % 99 % 1011,8 hPa 0,0 l/m 0,0 km/h (0 Bft) O-SO 105 0 min
25.01.2019 00:10 9,2 C 32,4 C 10,8 C 99 % 99 % 1011,8 hPa 0,0 l/m 0,0 km/h (0 Bft) W 270 0 min
25.01.2019 00:15 9,2 C 32,4 C 10,8 C 99 % 99 % 1011,8 hPa 0,0 l/m 0,0 km/h (0 Bft) O 95 0 min
25.01.2019 00:20 9,2 C 32,4 C 10,8 C 99 % 99 % 1011,8 hPa 0,0 l/m 0,0 km/h (0 Bft) S-SO 150 0 min
25.01.2019 00:25 9,2 C 32,4 C 10,8 C 99 % 99 % 1011,8 hPa 0,0 l/m 0,0 km/h (0 Bft) SO 145 0 min
25.01.2019 00:30 9,2 C 32,4 C 10,8 C 99 % 99 % 1011,8 hPa 0,0 l/m 0,0 km/h (0 Bft) O-SO 120 0 min
25.01.2019 00:35 9,2 C 32,4 C 10,8 C 99 % 99 % 1011,8 hPa 0,0 l/m 0,0 km/h (0 Bft) NO 40 0 min
25.01.2019 00:40 9,2 C 32,4 C 10,8 C 99 % 99 % 1012,8 hPa 0,0 l/m 0,0 km/h (0 Bft) SO 125 0 min
25.01.2019 00:45 9,2 C 32,4 C 10,8 C 99 % 99 % 1012,8 hPa 0,0 l/m 0,0 km/h (0 Bft) O-NO 75 0 min
25.01.2019 00:50 9,2 C 32,4 C 10,8 C 99 % 99 % 1012,8 hPa 0,0 l/m 0,0 km/h (0 Bft) O 85 0 min
25.01.2019 00:55 9,2 C 32,4 C 10,8 C 99 % 99 % 1011,8 hPa 0,0 l/m 0,0 km/h (0 Bft) O-SO 115 0 min
25.01.2019 01:00 9,2 C 32,4 C 10,8 C 99 % 99 % 1011,8 hPa 0,0 l/m 0,0 km/h (0 Bft) SO 145 0 min
25.01.2019 01:05 9,2 C 32,4 C 10,8 C 99 % 99 % 1011,8 hPa 0,0 l/m 0,0 km/h (0 Bft) SO 140 0 min
25.01.2019 01:10 9,2 C 32,4 C 10,8 C 99 % 99 % 1011,8 hPa 0,0 l/m 0,0 km/h (0 Bft) SO 125 0 min
25.01.2019 01:15 9,2 C 32,4 C 10,8 C 99 % 99 % 1011,8 hPa 0,0 l/m 0,0 km/h (0 Bft) O-SO 115 0 min
25.01.2019 01:20 9,2 C 32,4 C 10,8 C 99 % 99 % 1011,8 hPa 0,0 l/m 0,0 km/h (0 Bft) O 95 0 min
25.01.2019 01:25 9,2 C 32,4 C 10,8 C 99 % 99 % 1012,8 hPa 0,0 l/m 0,0 km/h (0 Bft) S-SO 165 0 min
25.01.2019 01:30 9,2 C 32,4 C 10,8 C 99 % 99 % 1012,8 hPa 0,0 l/m 0,0 km/h (0 Bft) NO 55 0 min
25.01.2019 01:35 9,2 C 32,4 C 10,8 C 99 % 99 % 1012,8 hPa 0,0 l/m 0,0 km/h (0 Bft) N 5 0 min
25.01.2019 01:40 9,2 C 32,4 C 10,8 C 99 % 99 % 1011,8 hPa 0,0 l/m 0,0 km/h (0 Bft) O-SO 110 0 min
25.01.2019 01:45 9,2 C 32,4 C 10,8 C 99 % 99 % 1011,8 hPa 0,0 l/m 0,0 km/h (0 Bft) O-SO 115 0 min
25.01.2019 01:50 9,2 C 32,4 C 10,8 C 99 % 99 % 1011,8 hPa 0,0 l/m 0,0 km/h (0 Bft) S 180 0 min
25.01.2019 01:55 9,2 C 32,4 C 10,8 C 99 % 99 % 1011,8 hPa 0,0 l/m 0,0 km/h (0 Bft) SW 225 0 min
25.01.2019 02:00 9,2 C 32,4 C 10,8 C 99 % 99 % 1011,8 hPa 0,0 l/m 0,0 km/h (0 Bft) SW 215 0 min
25.01.2019 02:05 9,2 C 32,4 C 10,8 C 99 % 99 % 1011,8 hPa 0,0 l/m 0,0 km/h (0 Bft) S-SW 205 0 min
25.01.2019 02:10 9,2 C 32,4 C 10,8 C 99 % 99 % 1012,8 hPa 0,0 l/m 0,0 km/h (0 Bft) SO 145 0 min
25.01.2019 02:15 9,2 C 32,4 C 10,8 C 99 % 99 % 1012,8 hPa 0,0 l/m 0,0 km/h (0 Bft) S-SW 200 0 min
25.01.2019 02:20 9,2 C 32,4 C 10,8 C 99 % 99 % 1012,8 hPa 0,0 l/m 0,0 km/h (0 Bft) S-SW 200 0 min
25.01.2019 02:25 9,2 C 32,4 C 10,8 C 99 % 99 % 1012,8 hPa 0,0 l/m 0,0 km/h (0 Bft) W-SW 240 0 min
25.01.2019 02:30 9,2 C 32,4 C 10,8 C 99 % 99 % 1012,8 hPa 0,0 l/m 0,0 km/h (0 Bft) S-SW 200 0 min
25.01.2019 02:35 9,2 C 32,4 C 10,8 C 99 % 99 % 1012,8 hPa 0,0 l/m 0,0 km/h (0 Bft) W-SW 240 0 min
25.01.2019 02:40 9,2 C 32,4 C 10,8 C 99 % 99 % 1012,8 hPa 0,0 l/m 0,0 km/h (0 Bft) SW 225 0 min
25.01.2019 02:45 9,2 C 32,4 C 10,8 C 99 % 99 % 1012,8 hPa 0,0 l/m 0,0 km/h (0 Bft) S 175 0 min
25.01.2019 02:50 9,2 C 32,4 C 10,8 C 99 % 99 % 1012,8 hPa 0,0 l/m 0,6 km/h (0 Bft) S 175 0 min
25.01.2019 02:55 9,2 C 32,4 C 10,8 C 99 % 99 % 1011,8 hPa 0,0 l/m 0,0 km/h (0 Bft) S-SW 210 0 min
25.01.2019 03:00 9,2 C 32,4 C 10,8 C 99 % 99 % 1011,8 hPa 0,0 l/m 0,0 km/h (0 Bft) SW 235 0 min
25.01.2019 03:05 9,2 C 32,4 C 10,8 C 99 % 99 % 1011,8 hPa 0,0 l/m 0,6 km/h (0 Bft) S 185 0 min
25.01.2019 03:10 9,2 C 32,4 C 10,8 C 99 % 99 % 1012,8 hPa 0,0 l/m 0,0 km/h (0 Bft) SW 235 0 min
25.01.2019 03:15 9,2 C 32,4 C 10,8 C 99 % 99 % 1012,8 hPa 0,0 l/m 0,0 km/h (0 Bft) S-SW 200 0 min
25.01.2019 03:20 9,2 C 32,4 C 10,8 C 99 % 99 % 1012,8 hPa 0,0 l/m 0,0 km/h (0 Bft) SW 230 0 min
25.01.2019 03:25 9,2 C 32,4 C 10,8 C 99 % 99 % 1012,8 hPa 0,0 l/m 0,0 km/h (0 Bft) S-SW 195 0 min
25.01.2019 03:30 9,2 C 32,4 C 10,8 C 99 % 99 % 1012,8 hPa 0,0 l/m 0,0 km/h (0 Bft) SW 225 0 min
25.01.2019 03:35 9,2 C 32,4 C 10,8 C 99 % 99 % 1012,8 hPa 0,0 l/m 2,4 km/h (1 Bft) SW 225 0 min
25.01.2019 03:40 9,2 C 32,4 C 10,8 C 99 % 99 % 1011,8 hPa 0,0 l/m 3,6 km/h (1 Bft) SW 230 0 min
25.01.2019 03:45 9,2 C 32,4 C 10,8 C 99 % 99 % 1011,8 hPa 0,0 l/m 0,6 km/h (0 Bft) W 260 0 min
25.01.2019 03:50 9,2 C 32,4 C 10,8 C 99 % 99 % 1011,8 hPa 0,0 l/m 2,4 km/h (1 Bft) W-NW 290 0 min
25.01.2019 03:55 9,2 C 32,4 C 10,8 C 99 % 99 % 1011,8 hPa 0,0 l/m 0,6 km/h (0 Bft) W-NW 290 0 min
25.01.2019 04:00 9,2 C 32,4 C 10,8 C 99 % 99 % 1011,8 hPa 0,0 l/m 0,0 km/h (0 Bft) NW 305 0 min
25.01.2019 04:05 9,2 C 32,4 C 10,8 C 99 % 99 % 1011,8 hPa 0,0 l/m 0,0 km/h (0 Bft) SW 225 0 min
25.01.2019 04:10 9,2 C 32,4 C 10,8 C 99 % 99 % 1011,8 hPa 0,0 l/m 0,0 km/h (0 Bft) S-SW 210 0 min
25.01.2019 04:15 9,2 C 32,4 C 10,8 C 99 % 99 % 1011,8 hPa 0,0 l/m 0,6 km/h (0 Bft) W 275 0 min
25.01.2019 04:20 9,2 C 32,4 C 10,8 C 99 % 99 % 1011,8 hPa 0,0 l/m 0,0 km/h (0 Bft) W-SW 250 0 min
25.01.2019 04:25 9,2 C 32,4 C 10,8 C 99 % 99 % 1012,8 hPa 0,0 l/m 0,0 km/h (0 Bft) W 265 0 min
25.01.2019 04:30 9,2 C 32,4 C 10,8 C 99 % 99 % 1012,8 hPa 0,0 l/m 0,0 km/h (0 Bft) W-SW 250 0 min
25.01.2019 04:35 9,2 C 32,4 C 10,8 C 99 % 99 % 1012,8 hPa 0,0 l/m 1,8 km/h (1 Bft) SW 220 0 min
25.01.2019 04:40 9,2 C 32,4 C 10,8 C 99 % 99 % 1011,8 hPa 0,0 l/m 0,0 km/h (0 Bft) SW 235 0 min
25.01.2019 04:45 9,2 C 32,4 C 10,8 C 99 % 99 % 1011,8 hPa 0,0 l/m 1,2 km/h (1 Bft) W-SW 245 0 min
25.01.2019 04:50 9,2 C 32,4 C 10,8 C 99 % 99 % 1011,8 hPa 0,0 l/m 1,8 km/h (1 Bft) SW 235 0 min
25.01.2019 04:55 9,2 C 32,4 C 10,8 C 99 % 99 % 1012,8 hPa 0,0 l/m 3,0 km/h (1 Bft) SW 230 0 min
25.01.2019 05:00 9,2 C 32,4 C 10,8 C 99 % 99 % 1012,8 hPa 0,0 l/m 0,6 km/h (0 Bft) W-SW 250 0 min
25.01.2019 05:05 9,2 C 32,4 C 10,8 C 99 % 99 % 1012,8 hPa 0,0 l/m 1,2 km/h (1 Bft) SW 235 0 min
25.01.2019 05:10 9,2 C 32,4 C 10,8 C 99 % 99 % 1011,8 hPa 0,0 l/m 0,0 km/h (0 Bft) NW 325 0 min
25.01.2019 05:15 9,2 C 32,4 C 10,8 C 99 % 99 % 1011,8 hPa 0,0 l/m 0,0 km/h (0 Bft) W-SW 240 0 min
25.01.2019 05:20 9,2 C 32,4 C 10,8 C 99 % 99 % 1011,8 hPa 0,0 l/m 0,0 km/h (0 Bft) W-NW 290 0 min
25.01.2019 05:25 9,2 C 32,4 C 10,8 C 99 % 99 % 1011,8 hPa 0,0 l/m 0,0 km/h (0 Bft) N-NO 15 0 min
25.01.2019 05:30 9,2 C 32,4 C 10,8 C 99 % 99 % 1011,8 hPa 0,0 l/m 0,0 km/h (0 Bft) N-NO 30 0 min
25.01.2019 05:35 9,2 C 32,4 C 10,8 C 99 % 99 % 1011,8 hPa 0,0 l/m 0,0 km/h (0 Bft) S 175 0 min
25.01.2019 05:40 9,2 C 32,4 C 10,8 C 99 % 99 % 1011,8 hPa 0,0 l/m 0,0 km/h (0 Bft) SW 215 0 min
25.01.2019 05:45 9,2 C 32,4 C 10,8 C 99 % 99 % 1011,8 hPa 0,0 l/m 0,0 km/h (0 Bft) S-SW 205 0 min
25.01.2019 05:50 9,2 C 32,4 C 10,8 C 99 % 99 % 1011,8 hPa 0,0 l/m 0,0 km/h (0 Bft) O 85 0 min
25.01.2019 05:55 9,2 C 32,4 C 10,8 C 99 % 99 % 1011,8 hPa 0,0 l/m 0,0 km/h (0 Bft) O 85 0 min
25.01.2019 06:00 9,2 C 32,4 C 10,8 C 99 % 99 % 1011,8 hPa 0,0 l/m 0,0 km/h (0 Bft) O-SO 115 0 min
25.01.2019 06:05 9,2 C 32,4 C 10,8 C 99 % 99 % 1011,8 hPa 0,0 l/m 0,6 km/h (0 Bft) O-SO 115 0 min
25.01.2019 06:10 9,2 C 32,4 C 10,8 C 99 % 99 % 1011,8 hPa 0,0 l/m 0,0 km/h (0 Bft) SO 135 0 min
25.01.2019 06:15 9,2 C 32,4 C 10,8 C 99 % 99 % 1011,8 hPa 0,0 l/m 0,0 km/h (0 Bft) SO 145 0 min
25.01.2019 06:20 9,2 C 32,4 C 10,8 C 99 % 99 % 1011,8 hPa 0,0 l/m 0,0 km/h (0 Bft) SO 140 0 min
25.01.2019 06:25 9,2 C 32,4 C 10,8 C 99 % 99 % 1011,8 hPa 0,0 l/m 0,0 km/h (0 Bft) S-SW 205 0 min
25.01.2019 06:30 9,2 C 32,4 C 10,8 C 99 % 99 % 1011,8 hPa 0,0 l/m 0,0 km/h (0 Bft) SW 235 0 min
25.01.2019 06:35 9,2 C 32,4 C 10,8 C 99 % 99 % 1011,8 hPa 0,0 l/m 0,0 km/h (0 Bft) W-SW 245 0 min
25.01.2019 06:40 9,2 C 32,4 C 10,8 C 99 % 99 % 1011,8 hPa 0,0 l/m 0,0 km/h (0 Bft) S-SO 150 0 min
25.01.2019 06:45 9,2 C 32,4 C 10,8 C 99 % 99 % 1011,8 hPa 0,0 l/m 0,0 km/h (0 Bft) S-SO 155 0 min
25.01.2019 06:50 9,2 C 32,4 C 10,8 C 99 % 99 % 1011,8 hPa 0,0 l/m 0,0 km/h (0 Bft) S-SO 150 0 min
25.01.2019 06:55 9,2 C 32,4 C 10,8 C 99 % 99 % 1013,8 hPa 0,0 l/m 0,0 km/h (0 Bft) W 260 0 min
25.01.2019 07:00 9,2 C 32,4 C 10,8 C 99 % 99 % 1013,8 hPa 0,0 l/m 0,0 km/h (0 Bft) W-SW 245 0 min
25.01.2019 07:05 9,2 C 32,4 C 10,8 C 99 % 99 % 1013,8 hPa 0,0 l/m 0,0 km/h (0 Bft) SW 225 0 min
25.01.2019 07:10 9,2 C 32,4 C 10,8 C 99 % 99 % 1012,8 hPa 0,0 l/m 0,0 km/h (0 Bft) O-SO 110 0 min
25.01.2019 07:15 9,2 C 32,4 C 10,8 C 99 % 99 % 1012,8 hPa 0,0 l/m 0,0 km/h (0 Bft) O-SO 105 0 min
25.01.2019 07:20 9,2 C 32,4 C 10,8 C 99 % 99 % 1012,8 hPa 0,0 l/m 0,0 km/h (0 Bft) O 85 0 min
25.01.2019 07:25 9,2 C 32,4 C 10,8 C 99 % 99 % 1012,8 hPa 0,0 l/m 0,0 km/h (0 Bft) S 175 0 min
25.01.2019 07:30 9,2 C 32,4 C 10,8 C 99 % 99 % 1012,8 hPa 0,0 l/m 0,0 km/h (0 Bft) SO 130 0 min
25.01.2019 07:35 9,2 C 32,4 C 10,8 C 99 % 99 % 1012,8 hPa 0,0 l/m 0,0 km/h (0 Bft) S 190 0 min
25.01.2019 07:40 9,2 C 32,4 C 10,8 C 99 % 99 % 1012,8 hPa 0,0 l/m 0,6 km/h (0 Bft) SO 140 0 min
25.01.2019 07:45 9,2 C 32,4 C 10,8 C 99 % 99 % 1012,8 hPa 0,0 l/m 0,6 km/h (0 Bft) S-SO 165 0 min
25.01.2019 07:50 9,2 C 32,4 C 10,8 C 99 % 99 % 1012,8 hPa 0,0 l/m 1,8 km/h (1 Bft) SO 145 0 min
25.01.2019 07:55 9,2 C 32,4 C 10,8 C 99 % 99 % 1012,8 hPa 0,0 l/m 1,8 km/h (1 Bft) S-SW 200 0 min
25.01.2019 08:00 9,2 C 32,4 C 10,8 C 99 % 99 % 1012,8 hPa 0,0 l/m 1,8 km/h (1 Bft) S 175 0 min
25.01.2019 08:05 9,2 C 32,4 C 10,8 C 99 % 99 % 1012,8 hPa 0,0 l/m 1,8 km/h (1 Bft) S 175 0 min
25.01.2019 08:10 9,2 C 32,4 C 10,8 C 99 % 99 % 1012,8 hPa 0,0 l/m 2,4 km/h (1 Bft) S-SO 160 0 min
25.01.2019 08:15 9,2 C 32,4 C 10,8 C 99 % 99 % 1012,8 hPa 0,0 l/m 0,6 km/h (0 Bft) S-SO 160 0 min
25.01.2019 08:20 9,2 C 32,4 C 10,8 C 99 % 99 % 1012,8 hPa 0,0 l/m 3,6 km/h (1 Bft) S-SO 155 0 min
25.01.2019 08:25 9,2 C 32,4 C 10,8 C 99 % 99 % 1012,8 hPa 0,0 l/m 1,2 km/h (1 Bft) S 175 0 min
25.01.2019 08:30 9,2 C 32,4 C 10,8 C 99 % 99 % 1012,8 hPa 0,0 l/m 2,4 km/h (1 Bft) SO 135 0 min
25.01.2019 08:35 9,2 C 32,4 C 10,8 C 99 % 99 % 1012,8 hPa 0,0 l/m 3,0 km/h (1 Bft) S-SO 165 0 min
25.01.2019 08:40 9,2 C 32,4 C 10,8 C 99 % 99 % 1012,8 hPa 0,0 l/m 2,4 km/h (1 Bft) S-SO 155 0 min
25.01.2019 08:45 9,2 C 32,4 C 10,8 C 99 % 99 % 1012,8 hPa 0,0 l/m 2,4 km/h (1 Bft) SW 215 0 min
25.01.2019 08:50 9,2 C 32,4 C 10,8 C 99 % 99 % 1012,8 hPa 0,0 l/m 1,2 km/h (1 Bft) S 180 0 min
25.01.2019 08:55 9,2 C 32,4 C 10,8 C 99 % 99 % 1012,8 hPa 0,0 l/m 0,0 km/h (0 Bft) S-SW 200 0 min
25.01.2019 09:00 9,2 C 32,4 C 10,8 C 99 % 99 % 1012,8 hPa 0,0 l/m 4,8 km/h (1 Bft) SO 135 0 min
25.01.2019 09:05 9,2 C 32,4 C 10,8 C 99 % 99 % 1012,8 hPa 0,0 l/m 1,2 km/h (1 Bft) SW 235 0 min
25.01.2019 09:10 9,2 C 32,4 C 10,8 C 99 % 99 % 1012,8 hPa 0,0 l/m 0,6 km/h (0 Bft) S 170 0 min
25.01.2019 09:15 9,2 C 32,4 C 10,8 C 99 % 99 % 1012,8 hPa 0,0 l/m 1,2 km/h (1 Bft) S 185 0 min
25.01.2019 09:20 9,2 C 32,4 C 10,8 C 99 % 99 % 1012,8 hPa 0,0 l/m 0,6 km/h (0 Bft) S 180 0 min
25.01.2019 09:25 9,2 C 32,4 C 10,8 C 99 % 99 % 1012,8 hPa 0,0 l/m 1,8 km/h (1 Bft) W-SW 250 0 min
25.01.2019 09:30 9,2 C 32,4 C 10,8 C 99 % 99 % 1012,8 hPa 0,0 l/m 3,0 km/h (1 Bft) S 190 0 min
25.01.2019 09:35 9,2 C 32,4 C 10,8 C 99 % 99 % 1012,8 hPa 0,0 l/m 3,0 km/h (1 Bft) S-SW 205 0 min
25.01.2019 09:40 9,2 C 32,4 C 10,8 C 99 % 99 % 1013,8 hPa 0,0 l/m 6,1 km/h (2 Bft) S 175 0 min
25.01.2019 09:45 9,2 C 32,4 C 10,8 C 99 % 99 % 1013,8 hPa 0,0 l/m 7,3 km/h (2 Bft) W-SW 240 0 min
25.01.2019 09:50 9,2 C 32,4 C 10,8 C 99 % 99 % 1013,8 hPa 0,0 l/m 6,1 km/h (2 Bft) S 190 0 min
25.01.2019 09:55 9,2 C 32,4 C 10,8 C 99 % 99 % 1012,8 hPa 0,0 l/m 5,4 km/h (2 Bft) S 175 0 min
25.01.2019 10:00 9,2 C 32,4 C 10,8 C 99 % 99 % 1012,8 hPa 0,0 l/m 6,1 km/h (2 Bft) S-SO 150 0 min
25.01.2019 10:05 9,2 C 32,4 C 10,8 C 99 % 99 % 1012,8 hPa 0,0 l/m 10,3 km/h (2 Bft) S 185 0 min
25.01.2019 10:10 9,2 C 32,4 C 10,8 C 99 % 99 % 1012,8 hPa 0,0 l/m 5,4 km/h (2 Bft) S-SO 165 0 min
25.01.2019 10:15 9,2 C 32,4 C 10,8 C 99 % 99 % 1012,8 hPa 0,0 l/m 2,4 km/h (1 Bft) S-SO 155 0 min
25.01.2019 10:20 9,2 C 32,4 C 10,8 C 99 % 99 % 1012,8 hPa 0,0 l/m 5,4 km/h (2 Bft) S-SO 155 0 min
25.01.2019 10:25 9,2 C 32,4 C 10,8 C 99 % 99 % 1012,8 hPa 0,0 l/m 5,4 km/h (2 Bft) S-SO 155 0 min
25.01.2019 10:30 9,2 C 32,4 C 10,8 C 99 % 99 % 1012,8 hPa 0,0 l/m 3,6 km/h (1 Bft) SW 235 0 min
25.01.2019 10:35 9,2 C 32,4 C 10,8 C 99 % 99 % 1012,8 hPa 0,0 l/m 3,0 km/h (1 Bft) SW 220 0 min
25.01.2019 10:40 9,2 C 32,4 C 10,8 C 99 % 99 % 1012,8 hPa 0,0 l/m 3,6 km/h (1 Bft) S-SW 195 0 min
25.01.2019 10:45 9,2 C 32,4 C 10,8 C 99 % 99 % 1012,8 hPa 0,0 l/m 1,2 km/h (1 Bft) SW 230 0 min
25.01.2019 10:50 9,2 C 32,4 C 10,8 C 99 % 99 % 1012,8 hPa 0,0 l/m 2,4 km/h (1 Bft) S-SW 205 0 min
25.01.2019 10:55 9,2 C 32,4 C 10,8 C 99 % 99 % 1012,8 hPa 0,0 l/m 3,6 km/h (1 Bft) S-SW 205 0 min
25.01.2019 11:00 9,2 C 32,4 C 10,8 C 99 % 99 % 1012,8 hPa 0,0 l/m 6,1 km/h (2 Bft) S-SW 205 0 min
25.01.2019 11:05 9,2 C 32,4 C 10,8 C 99 % 99 % 1012,8 hPa 0,0 l/m 4,8 km/h (1 Bft) S-SW 210 0 min
25.01.2019 11:10 9,2 C 32,4 C 10,8 C 99 % 99 % 1013,8 hPa 0,0 l/m 7,3 km/h (2 Bft) SO 130 0 min
25.01.2019 11:15 9,2 C 32,4 C 10,8 C 99 % 99 % 1013,8 hPa 0,0 l/m 5,4 km/h (2 Bft) SO 125 0 min
25.01.2019 11:20 9,2 C 32,4 C 10,8 C 99 % 99 % 1013,8 hPa 0,0 l/m 8,5 km/h (2 Bft) S 175 0 min
25.01.2019 11:25 9,2 C 32,4 C 10,8 C 99 % 99 % 1012,8 hPa 0,0 l/m 6,1 km/h (2 Bft) S 190 0 min
25.01.2019 11:30 9,2 C 32,4 C 10,8 C 99 % 99 % 1012,8 hPa 0,0 l/m 8,5 km/h (2 Bft) S-SW 195 0 min
25.01.2019 11:35 9,2 C 32,4 C 10,8 C 99 % 99 % 1012,8 hPa 0,0 l/m 7,3 km/h (2 Bft) W-SW 255 0 min
25.01.2019 11:40 9,2 C 32,4 C 10,8 C 99 % 99 % 1012,8 hPa 0,0 l/m 7,3 km/h (2 Bft) S 185 0 min
25.01.2019 11:45 9,2 C 32,4 C 10,8 C 99 % 99 % 1012,8 hPa 0,0 l/m 7,9 km/h (2 Bft) S 185 0 min
25.01.2019 11:50 9,2 C 32,4 C 10,8 C 99 % 99 % 1012,8 hPa 0,0 l/m 7,3 km/h (2 Bft) S-SO 150 0 min
25.01.2019 11:55 9,2 C 32,4 C 10,8 C 99 % 99 % 1012,8 hPa 0,0 l/m 9,1 km/h (2 Bft) S 180 0 min
25.01.2019 12:00 9,2 C 32,4 C 10,8 C 99 % 99 % 1012,8 hPa 0,0 l/m 10,3 km/h (2 Bft) S-SW 205 0 min
25.01.2019 12:05 9,2 C 32,4 C 10,8 C 99 % 99 % 1012,8 hPa 0,0 l/m 10,9 km/h (2 Bft) SW 220 0 min
25.01.2019 12:10 9,2 C 32,4 C 10,8 C 99 % 99 % 1012,8 hPa 0,0 l/m 18,2 km/h (3 Bft) SW 235 0 min
25.01.2019 12:15 9,2 C 32,4 C 10,8 C 99 % 99 % 1012,8 hPa 0,0 l/m 17,6 km/h (3 Bft) SW 215 0 min
25.01.2019 12:20 9,2 C 32,4 C 10,8 C 99 % 99 % 1012,8 hPa 0,0 l/m 16,9 km/h (3 Bft) W-SW 245 0 min
25.01.2019 12:25 9,2 C 32,4 C 10,8 C 99 % 99 % 1011,8 hPa 0,0 l/m 20,6 km/h (4 Bft) S 180 0 min
25.01.2019 12:30 9,2 C 32,4 C 10,8 C 99 % 99 % 1011,8 hPa 0,0 l/m 16,3 km/h (3 Bft) SW 235 0 min
25.01.2019 12:35 9,2 C 32,4 C 10,8 C 99 % 99 % 1011,8 hPa 0,0 l/m 14,5 km/h (3 Bft) S-SW 205 0 min
25.01.2019 12:40 9,2 C 32,4 C 10,8 C 99 % 99 % 1011,8 hPa 0,0 l/m 16,9 km/h (3 Bft) W-SW 240 0 min
25.01.2019 12:45 9,2 C 32,4 C 10,8 C 99 % 99 % 1011,8 hPa 0,0 l/m 15,7 km/h (3 Bft) S-SW 195 0 min
25.01.2019 12:50 9,2 C 32,4 C 10,8 C 99 % 99 % 1011,8 hPa 0,0 l/m 18,2 km/h (3 Bft) W-SW 240 0 min
25.01.2019 12:55 9,2 C 32,4 C 10,8 C 99 % 99 % 1011,8 hPa 0,0 l/m 21,2 km/h (4 Bft) SW 230 0 min
25.01.2019 13:00 9,2 C 32,4 C 10,8 C 99 % 99 % 1011,8 hPa 0,0 l/m 16,3 km/h (3 Bft) W 260 0 min
25.01.2019 13:05 9,2 C 32,4 C 10,8 C 99 % 99 % 1011,8 hPa 0,0 l/m 17,6 km/h (3 Bft) W-SW 250 0 min
25.01.2019 13:10 9,2 C 32,4 C 10,8 C 99 % 99 % 1011,8 hPa 0,0 l/m 11,5 km/h (2 Bft) S-SO 165 0 min
25.01.2019 13:15 9,2 C 32,4 C 10,8 C 99 % 99 % 1011,8 hPa 0,0 l/m 14,5 km/h (3 Bft) W-SW 240 0 min
25.01.2019 13:20 9,2 C 32,4 C 10,8 C 99 % 99 % 1011,8 hPa 0,0 l/m 15,1 km/h (3 Bft) SW 235 0 min
25.01.2019 13:25 9,2 C 32,4 C 10,8 C 99 % 99 % 1011,8 hPa 0,0 l/m 10,9 km/h (2 Bft) S-SW 195 0 min
25.01.2019 13:30 9,2 C 32,4 C 10,8 C 99 % 99 % 1011,8 hPa 0,0 l/m 18,2 km/h (3 Bft) SW 235 0 min
25.01.2019 13:35 9,2 C 32,4 C 10,8 C 99 % 99 % 1011,8 hPa 0,0 l/m 14,5 km/h (3 Bft) S-SW 210 0 min
25.01.2019 13:40 9,2 C 32,4 C 10,8 C 99 % 99 % 1011,8 hPa 0,0 l/m 15,7 km/h (3 Bft) SW 235 0 min
25.01.2019 13:45 9,2 C 32,4 C 10,8 C 99 % 99 % 1011,8 hPa 0,0 l/m 11,5 km/h (2 Bft) W-SW 240 0 min
25.01.2019 13:50 9,2 C 32,4 C 10,8 C 99 % 99 % 1011,8 hPa 0,0 l/m 14,5 km/h (3 Bft) S 190 0 min
25.01.2019 13:55 9,2 C 32,4 C 10,8 C 99 % 99 % 1011,8 hPa 0,0 l/m 15,1 km/h (3 Bft) SW 230 0 min
25.01.2019 14:00 9,2 C 32,4 C 10,8 C 99 % 99 % 1011,8 hPa 0,0 l/m 15,7 km/h (3 Bft) W-SW 245 0 min
25.01.2019 14:05 9,2 C 32,4 C 10,8 C 99 % 99 % 1011,8 hPa 0,0 l/m 12,1 km/h (2 Bft) S-SW 210 0 min
25.01.2019 14:10 9,2 C 32,4 C 10,8 C 99 % 99 % 1012,8 hPa 0,0 l/m 10,9 km/h (2 Bft) W 265 0 min
25.01.2019 14:15 9,2 C 32,4 C 10,8 C 99 % 99 % 1012,8 hPa 0,0 l/m 9,7 km/h (2 Bft) S-SW 210 0 min
25.01.2019 14:20 9,2 C 32,4 C 10,8 C 99 % 99 % 1012,8 hPa 0,0 l/m 13,3 km/h (3 Bft) SW 230 0 min
25.01.2019 14:25 9,2 C 32,4 C 10,8 C 99 % 99 % 1010,8 hPa 0,0 l/m 7,3 km/h (2 Bft) S 180 0 min
25.01.2019 14:30 9,2 C 32,4 C 10,8 C 99 % 99 % 1010,8 hPa 0,0 l/m 10,9 km/h (2 Bft) SW 235 0 min
25.01.2019 14:35 9,2 C 32,4 C 10,8 C 99 % 99 % 1010,8 hPa 0,0 l/m 9,7 km/h (2 Bft) SW 215 0 min
25.01.2019 14:40 9,2 C 32,4 C 10,8 C 99 % 99 % 1011,8 hPa 0,0 l/m 8,5 km/h (2 Bft) W 260 0 min
25.01.2019 14:45 9,2 C 32,4 C 10,8 C 99 % 99 % 1011,8 hPa 0,0 l/m 10,9 km/h (2 Bft) S 170 0 min
25.01.2019 14:50 9,2 C 32,4 C 10,8 C 99 % 99 % 1011,8 hPa 0,0 l/m 12,7 km/h (3 Bft) S 170 0 min
25.01.2019 14:55 9,2 C 32,4 C 10,8 C 99 % 99 % 1010,8 hPa 0,0 l/m 12,7 km/h (3 Bft) S 180 0 min
25.01.2019 15:00 9,2 C 32,4 C 10,8 C 99 % 99 % 1010,8 hPa 0,0 l/m 12,1 km/h (2 Bft) S 185 0 min
25.01.2019 15:05 9,2 C 32,4 C 10,8 C 99 % 99 % 1010,8 hPa 0,0 l/m 14,5 km/h (3 Bft) SW 225 0 min
25.01.2019 15:10 9,2 C 32,4 C 10,8 C 99 % 99 % 1010,8 hPa 0,0 l/m 13,9 km/h (3 Bft) SW 215 0 min
25.01.2019 15:15 9,2 C 32,4 C 10,8 C 99 % 99 % 1010,8 hPa 0,0 l/m 15,1 km/h (3 Bft) S-SW 210 0 min
25.01.2019 15:20 9,2 C 32,4 C 10,8 C 99 % 99 % 1010,8 hPa 0,0 l/m 15,1 km/h (3 Bft) S-SW 210 0 min
25.01.2019 15:25 9,2 C 32,4 C 10,8 C 99 % 99 % 1010,8 hPa 0,0 l/m 15,1 km/h (3 Bft) S-SW 205 0 min
25.01.2019 15:30 9,2 C 32,4 C 10,8 C 99 % 99 % 1010,8 hPa 0,0 l/m 18,2 km/h (3 Bft) S-SW 200 0 min
25.01.2019 15:35 9,2 C 32,4 C 10,8 C 99 % 99 % 1010,8 hPa 0,0 l/m 16,9 km/h (3 Bft) S 190 0 min
25.01.2019 15:40 9,2 C 32,4 C 10,8 C 99 % 99 % 1009,8 hPa 0,0 l/m 18,8 km/h (3 Bft) SW 225 0 min
25.01.2019 15:45 9,2 C 32,4 C 10,8 C 99 % 99 % 1009,8 hPa 0,0 l/m 17,6 km/h (3 Bft) W-SW 240 0 min
25.01.2019 15:50 9,2 C 32,4 C 10,8 C 99 % 99 % 1009,8 hPa 0,0 l/m 13,9 km/h (3 Bft) S 190 0 min
25.01.2019 15:55 9,2 C 32,4 C 10,8 C 99 % 99 % 1009,8 hPa 0,0 l/m 18,8 km/h (3 Bft) W-SW 240 0 min
25.01.2019 16:00 9,2 C 32,4 C 10,8 C 99 % 99 % 1009,8 hPa 0,0 l/m 13,3 km/h (3 Bft) SW 215 0 min
25.01.2019 16:05 9,2 C 32,4 C 10,8 C 99 % 99 % 1009,8 hPa 0,0 l/m 16,9 km/h (3 Bft) SW 225 0 min
25.01.2019 16:10 9,2 C 32,4 C 10,8 C 99 % 99 % 1010,8 hPa 0,0 l/m 13,9 km/h (3 Bft) SW 230 0 min
25.01.2019 16:15 9,2 C 32,4 C 10,8 C 99 % 99 % 1010,8 hPa 0,0 l/m 9,7 km/h (2 Bft) S-SW 210 0 min
25.01.2019 16:20 9,2 C 32,4 C 10,8 C 99 % 99 % 1010,8 hPa 0,0 l/m 14,5 km/h (3 Bft) SW 225 0 min
25.01.2019 16:25 9,2 C 32,4 C 10,8 C 99 % 99 % 1010,8 hPa 0,0 l/m 8,5 km/h (2 Bft) S-SO 160 0 min
25.01.2019 16:30 9,2 C 32,4 C 10,8 C 99 % 99 % 1010,8 hPa 0,0 l/m 10,3 km/h (2 Bft) SW 235 0 min
25.01.2019 16:35 9,2 C 32,4 C 10,8 C 99 % 99 % 1010,8 hPa 0,0 l/m 10,9 km/h (2 Bft) S-SW 205 0 min
25.01.2019 16:40 9,2 C 32,4 C 10,8 C 99 % 99 % 1010,8 hPa 0,0 l/m 18,2 km/h (3 Bft) SO 140 0 min
25.01.2019 16:45 9,2 C 32,4 C 10,8 C 99 % 99 % 1010,8 hPa 0,0 l/m 12,1 km/h (2 Bft) S-SW 200 0 min
25.01.2019 16:50 9,2 C 32,4 C 10,8 C 99 % 99 % 1010,8 hPa 0,0 l/m 18,2 km/h (3 Bft) S-SW 205 0 min
25.01.2019 16:55 9,2 C 32,4 C 10,8 C 99 % 99 % 1009,8 hPa 0,3 l/m 15,7 km/h (3 Bft) S-SO 160 0 min
25.01.2019 17:00 9,2 C 32,4 C 10,8 C 99 % 99 % 1009,8 hPa 0,0 l/m 13,3 km/h (3 Bft) S-SW 200 0 min
25.01.2019 17:05 9,2 C 32,4 C 10,8 C 99 % 99 % 1009,8 hPa 0,0 l/m 11,5 km/h (2 Bft) S 175 0 min
25.01.2019 17:10 9,2 C 32,4 C 10,8 C 99 % 99 % 1010,8 hPa 0,0 l/m 10,9 km/h (2 Bft) SW 220 0 min
25.01.2019 17:15 9,2 C 32,4 C 10,8 C 99 % 99 % 1010,8 hPa 0,0 l/m 18,2 km/h (3 Bft) S 175 0 min
25.01.2019 17:20 9,2 C 32,4 C 10,8 C 99 % 99 % 1010,8 hPa 0,0 l/m 14,5 km/h (3 Bft) W-SW 240 0 min
25.01.2019 17:25 9,2 C 32,4 C 10,8 C 99 % 99 % 1009,8 hPa 0,0 l/m 14,5 km/h (3 Bft) S-SO 155 0 min
25.01.2019 17:30 9,2 C 32,4 C 10,8 C 99 % 99 % 1009,8 hPa 0,0 l/m 16,9 km/h (3 Bft) SW 225 0 min
25.01.2019 17:35 9,2 C 32,4 C 10,8 C 99 % 99 % 1009,8 hPa 0,0 l/m 15,7 km/h (3 Bft) W-SW 250 0 min
25.01.2019 17:40 9,2 C 32,4 C 10,8 C 99 % 99 % 1009,8 hPa 0,0 l/m 14,5 km/h (3 Bft) S-SO 155 0 min
25.01.2019 17:45 9,2 C 32,4 C 10,8 C 99 % 99 % 1009,8 hPa 0,0 l/m 18,2 km/h (3 Bft) S 185 0 min
25.01.2019 17:50 9,2 C 32,4 C 10,8 C 99 % 99 % 1009,8 hPa 0,0 l/m 15,7 km/h (3 Bft) S-SO 165 0 min
25.01.2019 17:55 9,2 C 32,4 C 10,8 C 99 % 99 % 1008,8 hPa 0,0 l/m 13,9 km/h (3 Bft) S-SO 165 0 min
25.01.2019 18:00 9,2 C 32,4 C 10,8 C 99 % 99 % 1008,8 hPa 0,0 l/m 22,4 km/h (4 Bft) S-SO 150 0 min
25.01.2019 18:05 9,2 C 32,4 C 10,8 C 99 % 99 % 1008,8 hPa 0,0 l/m 18,2 km/h (3 Bft) SW 220 0 min
25.01.2019 18:10 9,2 C 32,4 C 10,8 C 99 % 99 % 1009,8 hPa 0,0 l/m 16,9 km/h (3 Bft) S 185 0 min
25.01.2019 18:15 9,2 C 32,4 C 10,8 C 99 % 99 % 1009,8 hPa 0,0 l/m 12,1 km/h (2 Bft) S-SW 195 0 min
25.01.2019 18:20 9,2 C 32,4 C 10,8 C 99 % 99 % 1009,8 hPa 0,0 l/m 19,4 km/h (3 Bft) S 180 0 min
25.01.2019 18:25 9,2 C 32,4 C 10,8 C 99 % 99 % 1008,8 hPa 0,0 l/m 18,2 km/h (3 Bft) S-SW 205 0 min
25.01.2019 18:30 9,2 C 32,4 C 10,8 C 99 % 99 % 1008,8 hPa 0,0 l/m 16,9 km/h (3 Bft) S-SW 195 0 min
25.01.2019 18:35 9,2 C 32,4 C 10,8 C 99 % 99 % 1008,8 hPa 0,0 l/m 20,0 km/h (4 Bft) S-SW 200 0 min
25.01.2019 18:40 9,2 C 32,4 C 10,8 C 99 % 99 % 1009,8 hPa 0,0 l/m 19,4 km/h (3 Bft) S-SW 205 0 min
25.01.2019 18:45 9,2 C 32,4 C 10,8 C 99 % 99 % 1009,8 hPa 0,0 l/m 24,2 km/h (4 Bft) SO 140 0 min
25.01.2019 18:50 9,2 C 32,4 C 10,8 C 99 % 99 % 1009,8 hPa 0,0 l/m 20,0 km/h (4 Bft) S-SO 160 0 min
25.01.2019 18:55 9,2 C 32,4 C 10,8 C 99 % 99 % 1008,8 hPa 0,3 l/m 21,2 km/h (4 Bft) S-SW 210 0 min
25.01.2019 19:00 9,2 C 32,4 C 10,8 C 99 % 99 % 1008,8 hPa 0,0 l/m 23,0 km/h (4 Bft) W-SW 240 0 min
25.01.2019 19:05 9,2 C 32,4 C 10,8 C 99 % 99 % 1008,8 hPa 0,3 l/m 21,2 km/h (4 Bft) S 180 0 min
25.01.2019 19:10 9,2 C 32,4 C 10,8 C 99 % 99 % 1008,8 hPa 0,0 l/m 15,7 km/h (3 Bft) S-SW 205 0 min
25.01.2019 19:15 9,2 C 32,4 C 10,8 C 99 % 99 % 1008,8 hPa 0,0 l/m 13,9 km/h (3 Bft) S-SW 210 0 min
25.01.2019 19:20 9,2 C 32,4 C 10,8 C 99 % 99 % 1008,8 hPa 0,0 l/m 15,7 km/h (3 Bft) S-SO 165 0 min
25.01.2019 19:25 9,2 C 32,4 C 10,8 C 99 % 99 % 1008,8 hPa 0,0 l/m 19,4 km/h (3 Bft) S 170 0 min
25.01.2019 19:30 9,2 C 32,4 C 10,8 C 99 % 99 % 1008,8 hPa 0,0 l/m 11,5 km/h (2 Bft) S-SO 165 0 min
25.01.2019 19:35 9,2 C 32,4 C 10,8 C 99 % 99 % 1008,8 hPa 0,0 l/m 13,3 km/h (3 Bft) S 190 0 min
25.01.2019 19:40 9,2 C 32,4 C 10,8 C 99 % 99 % 1008,8 hPa 0,0 l/m 21,2 km/h (4 Bft) SW 230 0 min
25.01.2019 19:45 9,2 C 32,4 C 10,8 C 99 % 99 % 1008,8 hPa 0,0 l/m 18,8 km/h (3 Bft) S 175 0 min
25.01.2019 19:50 9,2 C 32,4 C 10,8 C 99 % 99 % 1008,8 hPa 0,3 l/m 27,1 km/h (5 Bft) S-SW 200 0 min
25.01.2019 19:55 9,2 C 32,4 C 10,8 C 99 % 99 % 1008,8 hPa 0,0 l/m 15,7 km/h (3 Bft) S 170 0 min
25.01.2019 20:00 9,2 C 32,4 C 10,8 C 99 % 99 % 1008,8 hPa 0,0 l/m 15,1 km/h (3 Bft) W-SW 250 0 min
25.01.2019 20:05 9,2 C 32,4 C 10,8 C 99 % 99 % 1008,8 hPa 0,0 l/m 18,2 km/h (3 Bft) SW 220 0 min
25.01.2019 20:10 9,2 C 32,4 C 10,8 C 99 % 99 % 1008,8 hPa 0,0 l/m 13,3 km/h (3 Bft) SW 215 0 min
25.01.2019 20:15 9,2 C 32,4 C 10,8 C 99 % 99 % 1008,8 hPa 0,0 l/m 18,2 km/h (3 Bft) S 185 0 min
25.01.2019 20:20 9,2 C 32,4 C 10,8 C 99 % 99 % 1008,8 hPa 0,0 l/m 15,1 km/h (3 Bft) SW 220 0 min
25.01.2019 20:25 9,2 C 32,4 C 10,8 C 99 % 99 % 1008,8 hPa 0,0 l/m 17,6 km/h (3 Bft) S 185 0 min
25.01.2019 20:30 9,2 C 32,4 C 10,8 C 99 % 99 % 1008,8 hPa 0,0 l/m 11,5 km/h (2 Bft) S 180 0 min
25.01.2019 20:35 9,2 C 32,4 C 10,8 C 99 % 99 % 1008,8 hPa 0,3 l/m 11,5 km/h (2 Bft) SW 215 0 min
25.01.2019 20:40 9,2 C 32,4 C 10,8 C 99 % 99 % 1008,8 hPa 0,0 l/m 13,3 km/h (3 Bft) W-SW 240 0 min
25.01.2019 20:45 9,2 C 32,4 C 10,8 C 99 % 99 % 1008,8 hPa 0,0 l/m 15,7 km/h (3 Bft) S 180 0 min
25.01.2019 20:50 9,2 C 32,4 C 10,8 C 99 % 99 % 1008,8 hPa 0,3 l/m 13,9 km/h (3 Bft) S 185 0 min
25.01.2019 20:55 9,2 C 32,4 C 10,8 C 99 % 99 % 1008,8 hPa 0,0 l/m 15,7 km/h (3 Bft) SW 230 0 min
25.01.2019 21:00 9,2 C 32,4 C 10,8 C 99 % 99 % 1008,8 hPa 0,0 l/m 13,9 km/h (3 Bft) SW 220 0 min
25.01.2019 21:05 9,2 C 32,4 C 10,8 C 99 % 99 % 1008,8 hPa 0,0 l/m 14,5 km/h (3 Bft) S-SW 205 0 min
25.01.2019 21:10 9,2 C 32,4 C 10,8 C 99 % 99 % 1008,8 hPa 0,0 l/m 16,9 km/h (3 Bft) S-SW 195 0 min
25.01.2019 21:15 9,2 C 32,4 C 10,8 C 99 % 99 % 1008,8 hPa 0,0 l/m 12,7 km/h (3 Bft) SW 230 0 min
25.01.2019 21:20 9,2 C 32,4 C 10,8 C 99 % 99 % 1008,8 hPa 0,0 l/m 15,1 km/h (3 Bft) S 190 0 min
25.01.2019 21:25 9,2 C 32,4 C 10,8 C 99 % 99 % 1007,8 hPa 0,0 l/m 15,1 km/h (3 Bft) S 190 0 min
25.01.2019 21:30 9,2 C 32,4 C 10,8 C 99 % 99 % 1007,8 hPa 0,0 l/m 14,5 km/h (3 Bft) S-SW 205 0 min
25.01.2019 21:35 9,2 C 32,4 C 10,8 C 99 % 99 % 1007,8 hPa 0,0 l/m 13,9 km/h (3 Bft) S 170 0 min
25.01.2019 21:40 9,2 C 32,4 C 10,8 C 99 % 99 % 1007,8 hPa 0,0 l/m 12,7 km/h (3 Bft) S-SW 210 0 min
25.01.2019 21:45 9,2 C 32,4 C 10,8 C 99 % 99 % 1007,8 hPa 0,3 l/m 12,7 km/h (3 Bft) S-SW 195 0 min
25.01.2019 21:50 9,2 C 32,4 C 10,8 C 99 % 99 % 1007,8 hPa 0,0 l/m 10,3 km/h (2 Bft) SW 230 0 min
25.01.2019 21:55 9,2 C 32,4 C 10,8 C 99 % 99 % 1007,8 hPa 0,0 l/m 12,1 km/h (2 Bft) S-SW 205 0 min
25.01.2019 22:00 9,2 C 32,4 C 10,8 C 99 % 99 % 1007,8 hPa 0,0 l/m 14,5 km/h (3 Bft) W-SW 255 0 min
25.01.2019 22:05 9,2 C 32,4 C 10,8 C 99 % 99 % 1007,8 hPa 0,0 l/m 12,1 km/h (2 Bft) S-SW 205 0 min
25.01.2019 22:10 9,2 C 32,4 C 10,8 C 99 % 99 % 1007,8 hPa 0,0 l/m 16,9 km/h (3 Bft) W-SW 255 0 min
25.01.2019 22:15 9,2 C 32,4 C 10,8 C 99 % 99 % 1007,8 hPa 0,0 l/m 15,1 km/h (3 Bft) S-SW 205 0 min
25.01.2019 22:20 9,2 C 32,4 C 10,8 C 99 % 99 % 1007,8 hPa 0,0 l/m 11,5 km/h (2 Bft) S-SW 210 0 min
25.01.2019 22:25 9,2 C 32,4 C 10,8 C 99 % 99 % 1007,8 hPa 0,0 l/m 6,1 km/h (2 Bft) S-SW 200 0 min
25.01.2019 22:30 9,2 C 32,4 C 10,8 C 99 % 99 % 1007,8 hPa 0,0 l/m 10,3 km/h (2 Bft) W-SW 240 0 min
25.01.2019 22:35 9,2 C 32,4 C 10,8 C 99 % 99 % 1007,8 hPa 0,3 l/m 9,7 km/h (2 Bft) SW 215 0 min
25.01.2019 22:40 9,2 C 32,4 C 10,8 C 99 % 99 % 1007,8 hPa 0,0 l/m 9,7 km/h (2 Bft) S-SW 205 0 min
25.01.2019 22:45 9,2 C 32,4 C 10,8 C 99 % 99 % 1007,8 hPa 0,0 l/m 20,0 km/h (4 Bft) SW 225 0 min
25.01.2019 22:50 9,2 C 32,4 C 10,8 C 99 % 99 % 1007,8 hPa 0,0 l/m 16,3 km/h (3 Bft) S 180 0 min
25.01.2019 22:55 9,2 C 32,4 C 10,8 C 99 % 99 % 1007,8 hPa 0,0 l/m 14,5 km/h (3 Bft) SW 230 0 min
25.01.2019 23:00 9,2 C 32,4 C 10,8 C 99 % 99 % 1007,8 hPa 0,0 l/m 14,5 km/h (3 Bft) SW 225 0 min
25.01.2019 23:05 9,2 C 32,4 C 10,8 C 99 % 99 % 1007,8 hPa 0,0 l/m 16,9 km/h (3 Bft) SW 235 0 min
25.01.2019 23:10 9,2 C 32,4 C 10,8 C 99 % 99 % 1007,8 hPa 0,0 l/m 19,4 km/h (3 Bft) S-SW 210 0 min
25.01.2019 23:15 9,2 C 32,4 C 10,8 C 99 % 99 % 1007,8 hPa 0,0 l/m 17,6 km/h (3 Bft) S-SW 210 0 min
25.01.2019 23:20 9,2 C 32,4 C 10,8 C 99 % 99 % 1007,8 hPa 0,0 l/m 15,7 km/h (3 Bft) SW 235 0 min
25.01.2019 23:25 9,2 C 32,4 C 10,8 C 99 % 99 % 1007,8 hPa 0,0 l/m 18,2 km/h (3 Bft) SW 225 0 min
25.01.2019 23:30 9,2 C 32,4 C 10,8 C 99 % 99 % 1007,8 hPa 0,0 l/m 20,0 km/h (4 Bft) W 275 0 min
25.01.2019 23:35 9,2 C 32,4 C 10,8 C 99 % 99 % 1007,8 hPa 0,0 l/m 16,9 km/h (3 Bft) W-SW 245 0 min
25.01.2019 23:40 9,2 C 32,4 C 10,8 C 99 % 99 % 1007,8 hPa 0,0 l/m 18,2 km/h (3 Bft) W-SW 245 0 min
25.01.2019 23:45 9,2 C 32,4 C 10,8 C 99 % 99 % 1007,8 hPa 0,0 l/m 17,6 km/h (3 Bft) W 270 0 min
25.01.2019 23:50 9,2 C 32,4 C 10,8 C 99 % 99 % 1007,8 hPa 0,0 l/m 16,9 km/h (3 Bft) S-SW 210 0 min
25.01.2019 23:55 9,2 C 32,4 C 10,8 C 99 % 99 % 1007,8 hPa 0,0 l/m 15,1 km/h (3 Bft) N-NW 335 0 min
_ Min-Zeit 00:00 00:00 00:00 00:00 00:00 21:25 - 00:00 - - -
Minimum _ 9,2 C 32,4 C 10,8 C 99 % 99 % 1007,8 hPa - 0,0 km/h (0 Bft) - - -
_ Max-Zeit 00:00 00:00 00:00 00:00 00:00 06:55 16:55 19:50 - - 00:00
Maximum _ 9,2 C 32,4 C 10,8 C 99 % 99 % 1013,8 hPa 0,3 l/m 27,1 km/h
S-SW (5 Bft)
- - 0 min
Durchschnitt _ 9,2 C 32,4 C 10,8 C 99 % 99 % 1011,1 hPa #2,4 l/m 8,4 km/h (2 Bft) SW - #0 min.